Weather History for MMHO - February, 2013

Change the Weather History Date:

Saturday, February 2, 2013

  Actual Average Record
Temperature  
Mean Temperature 68 °F -  
Max Temperature 87 °F 76 °F 87 °F (2013)
Min Temperature 50 °F 47 °F 41 °F (2001)
Cooling Degree Days 4    
Growing Degree Days 18 (Base 50)    
Moisture  
Dew Point 40 °F    
Average Humidity 45    
Maximum Humidity 76    
Minimum Humidity 13    
Precipitation  
Precipitation 0.00 in - - ()
Sea Level Pressure  
Sea Level Pressure 30.07 in    
Wind  
Wind Speed 2 mph ()    
Max Wind Speed 7 mph    
Max Gust Speed -    
Visibility 10.8 miles    
Events      
Averages and records for this station are not official NWS values.
T = Trace of Precipitation, MM = Missing Value Source: Averaged Metar Reports

Daily Weather History Graph

Daily Weather History Graph

Search for Another Location

Airport or City:

Trip Planner

Search our weather history database for the weather conditions in past years. The results will help you decide how hot, cold, wet, or windy it might be!

Date:

Astronomy

Feb. 02, 2013 Rise Set
Actual Time 7:12 AM MST 6:04 PM MST
Civil Twilight 6:47 AM MST 6:28 PM MST
Nautical Twilight 6:19 AM MST 6:57 PM MST
Astronomical Twilight 5:51 AM MST 7:25 PM MST
Moon No Moon Rise 11:01 AM MST (2/2)
Length of Visible Light 11h 41m
Length of Day
10h 51m
Waning Gibbous, 59% of the Moon is Illuminated
Feb 2
Waning Gibbous
Feb 3
Last Quarter
Feb 10
New
Feb 17
First Quarter
Feb 25
Full

Hourly Weather History & Observations

Time (MST) Temp. Dew Point Humidity Pressure Visibility Wind Dir Wind Speed Gust Speed Precip Events Conditions
12:43 AM 55.4 °F 42.8 °F 63% 30.11 in 10.0 mi Calm Calm - N/A   Mostly Cloudy
1:44 AM 50.0 °F 42.8 °F 76% 30.09 in 10.0 mi Calm Calm - N/A   Mostly Cloudy
2:43 AM 51.8 °F 42.8 °F 71% 30.10 in 10.0 mi Calm Calm - N/A   Mostly Cloudy
3:43 AM 51.8 °F 42.8 °F 71% 30.11 in 10.0 mi Calm Calm - N/A   Mostly Cloudy
4:46 AM 51.8 °F 42.8 °F 71% 30.10 in 10.0 mi Calm Calm - N/A   Mostly Cloudy
5:44 AM 51.8 °F 42.8 °F 71% 30.11 in 10.0 mi Calm Calm - N/A   Mostly Cloudy
6:44 AM 50.0 °F 41.0 °F 71% 30.12 in 10.0 mi ENE 5.8 mph - N/A   Scattered Clouds
7:41 AM 51.8 °F 42.8 °F 71% 30.10 in 10.0 mi ENE 4.6 mph - N/A   Mostly Cloudy
7:45 AM 52 °F 45 °F 68% 30.11 in 7 mi SE 2.2 mph - -   Scattered Clouds
8:52 AM 60.8 °F 42.8 °F 52% 30.13 in 10.0 mi Calm Calm - N/A   Mostly Cloudy
9:52 AM 60.8 °F 41.0 °F 48% 30.14 in 10.0 mi Calm Calm - N/A   Mostly Cloudy
10:42 AM 64.4 °F 41.0 °F 42% 30.13 in 10.0 mi Calm Calm - N/A   Mostly Cloudy
11:53 AM 75.2 °F 37.4 °F 25% 30.12 in 10.0 mi Calm Calm - N/A   Mostly Cloudy
12:50 PM 78.8 °F 33.8 °F 20% 30.09 in 10.0 mi WNW 4.6 mph - N/A   Mostly Cloudy
1:42 PM 82.4 °F 33.8 °F 17% 29.86 in 10.0 mi SSW 5.8 mph - N/A   Mostly Cloudy
2:44 PM 86.0 °F 32.0 °F 14% 30.03 in 15.0 mi West 5.8 mph - N/A   Overcast
3:43 PM 86.0 °F 32.0 °F 14% 30.01 in 15.0 mi West 4.6 mph - N/A   Overcast
4:47 PM 87.8 °F 30.2 °F 13% 30.00 in 15.0 mi WSW 6.9 mph - N/A   Overcast
5:46 PM 82.4 °F 28.4 °F 14% 30.02 in 15.0 mi WSW 4.6 mph - N/A   Overcast
6:44 PM 77.0 °F 33.8 °F 21% 30.02 in 12.0 mi WSW 5.8 mph - N/A   Overcast
7:43 PM 73.4 °F 39.2 °F 29% 30.04 in 10.0 mi West 4.6 mph - N/A   Overcast
8:44 PM 71.6 °F 44.6 °F 38% 30.04 in 10.0 mi WSW 5.8 mph - N/A   Overcast
9:41 PM 69.8 °F 46.4 °F 43% 30.06 in 10.0 mi SW 3.5 mph - N/A   Mostly Cloudy
10:44 PM 68.0 °F 46.4 °F 46% 30.05 in 10.0 mi Calm Calm - N/A   Mostly Cloudy
11:40 PM 66.2 °F 46.4 °F 49% 30.06 in 10.0 mi Calm Calm - N/A   Mostly Cloudy